| time (UTC) | temp F | wind direction | speed knots | gust knots | rain 1hr in | rain 24hr in | rain mn in | humidity % | barometer mb |
| 20260503214446 | 88 | 261 | 4.3 | 11.3 | 0.00 | 0.00 | 0.00 | 12 | |
| 20260503213442 | 87 | 271 | 2.6 | 5.2 | 0.00 | 0.00 | 0.00 | 12 | |
| 20260503212440 | 87 | 267 | 4.3 | 11.3 | 0.00 | 0.00 | 0.00 | 12 | |
| 20260503211440 | 87 | 220 | 3.5 | 13.0 | 0.00 | 0.00 | 0.00 | 13 | |
| 20260503210439 | 88 | 213 | 6.1 | 8.7 | 0.00 | 0.00 | 0.00 | 11 | |
| 20260503205437 | 87 | 222 | 4.3 | 7.8 | 0.00 | 0.00 | 0.00 | 11 | |
| 20260503204436 | 86 | 207 | 9.6 | 14.8 | 0.00 | 0.00 | 0.00 | 10 | |
| 20260503203436 | 87 | 259 | 3.5 | 7.0 | 0.00 | 0.00 | 0.00 | 12 | |
| 20260503202431 | 87 | 250 | 5.2 | 9.6 | 0.00 | 0.00 | 0.00 | 11 | |
| 20260503201426 | 86 | 180 | 5.2 | 8.7 | 0.00 | 0.00 | 0.00 | 11 | |
| 20260503200425 | 87 | 294 | 3.5 | 6.1 | 0.00 | 0.00 | 0.00 | 10 | |
| 20260503195420 | 85 | 194 | 4.3 | 13.9 | 0.00 | 0.00 | 0.00 | 10 | |
| 20260503194418 | 87 | 195 | 5.2 | 7.8 | 0.00 | 0.00 | 0.00 | 11 | |
| 20260503193415 | 86 | 188 | 5.2 | 11.3 | 0.00 | 0.00 | 0.00 | 12 | |
| 20260503192414 | 85 | 243 | 4.3 | 11.3 | 0.00 | 0.00 | 0.00 | 14 | |
| 20260503191413 | 85 | 178 | 1.7 | 3.5 | 0.00 | 0.00 | 0.00 | 15 | |
| 20260503190413 | 84 | 271 | 6.1 | 11.3 | 0.00 | 0.00 | 0.00 | 14 | |
| 20260503185412 | 84 | 212 | 8.7 | 11.3 | 0.00 | 0.00 | 0.00 | 15 | |
| 20260503184408 | 84 | 251 | 3.5 | 8.7 | 0.00 | 0.00 | 0.00 | 16 | |
| 20260503183406 | 84 | 60 | 1.7 | 2.6 | 0.00 | 0.00 | 0.00 | 16 | |
| 20260503182402 | 82 | 84 | 2.6 | 3.5 | 0.00 | 0.00 | 0.00 | 17 | |
| 20260503181402 | 83 | 277 | 1.7 | 3.5 | 0.00 | 0.00 | 0.00 | 20 | |
| 20260503180402 | 81 | 62 | 0.9 | 5.2 | 0.00 | 0.00 | 0.00 | 20 | |
| 20260503175403 | 81 | 93 | 4.3 | 5.2 | 0.00 | 0.00 | 0.00 | 20 | |
| 20260503174402 | 80 | 20 | 2.6 | 6.1 | 0.00 | 0.00 | 0.00 | 22 | |
| 20260503173359 | 80 | 85 | 1.7 | 2.6 | 0.00 | 0.00 | 0.00 | 21 | |
| 20260503172359 | 79 | 70 | 0.9 | 1.7 | 0.00 | 0.00 | 0.00 | 21 | |
| 20260503171358 | 80 | 74 | 0.9 | 2.6 | 0.00 | 0.00 | 0.00 | 21 | |
| 20260503170357 | 80 | 81 | 0.0 | 3.5 | 0.00 | 0.00 | 0.00 | 22 | |
| 20260503150326 | 71 | 171 | 1.7 | 1.7 | 0.00 | 0.00 | 0.00 | 34 | |
| 20260503140314 | 63 | 77 | 0.9 | 0.9 | 0.00 | 0.00 | 0.00 | 44 | |
| 20260503131308 | 57 | 44 | 0.9 | 2.6 | 0.00 | 0.00 | 0.00 | 54 | |
| 20260503130302 | 57 | 65 | 0.0 | 0.9 | 0.00 | 0.00 | 0.00 | 51 | |
| 20260503110241 | 55 | 60 | 0.9 | 2.6 | 0.00 | 0.00 | 0.00 | 50 | |
| 20260503100224 | 56 | 41 | 2.6 | 2.6 | 0.00 | 0.00 | 0.00 | 48 | |
| 20260503090217 | 60 | 69 | 0.0 | 0.0 | 0.00 | 0.00 | 0.00 | 44 | |
| 20260503081208 | 59 | 72 | 0.0 | 0.0 | 0.00 | 0.00 | 0.00 | 44 | |
| 20260503080206 | 59 | 79 | 0.0 | 0.0 | 0.00 | 0.00 | 0.00 | 45 | |
| 20260503072157 | 60 | 76 | 0.0 | 0.9 | 0.00 | 0.00 | 0.00 | 44 | |
| 20260503071156 | 60 | 82 | 0.0 | 0.9 | 0.00 | 0.00 | 0.00 | 44 | |
| 20260503070151 | 61 | 74 | 0.0 | 0.0 | 0.00 | 0.00 | 0.00 | 44 | |
| 20260503060133 | 66 | 79 | 1.7 | 1.7 | 0.00 | 0.00 | 0.00 | 39 | |
| 20260503054129 | 67 | 300 | 1.7 | 2.6 | 0.00 | 0.00 | 0.00 | 37 | |
| 20260503053125 | 66 | 61 | 0.9 | 0.9 | 0.00 | 0.00 | 0.00 | 39 | |
| 20260503052123 | 65 | 91 | 0.0 | 0.9 | 0.00 | 0.00 | 0.00 | 39 | |
| 20260503051123 | 69 | 101 | 1.7 | 2.6 | 0.00 | 0.00 | 0.00 | 36 | |
| 20260503050122 | 67 | 130 | 0.9 | 1.7 | 0.00 | 0.00 | 0.00 | 37 | |
| 20260503045122 | 67 | 82 | 0.9 | 1.7 | 0.00 | 0.00 | 0.00 | 37 | |
| 20260503044122 | 68 | 87 | 0.9 | 0.9 | 0.00 | 0.00 | 0.00 | 36 | |
| 20260503043121 | 68 | 76 | 0.9 | 0.9 | 0.00 | 0.00 | 0.00 | 36 | |
| 20260503042120 | 68 | 92 | 1.7 | 1.7 | 0.00 | 0.00 | 0.00 | 35 | |
| 20260503041115 | 69 | 100 | 0.9 | 1.7 | 0.00 | 0.00 | 0.00 | 35 | |
| 20260503040115 | 70 | 108 | 1.7 | 2.6 | 0.00 | 0.00 | 0.00 | 34 | |
| 20260503035115 | 70 | 81 | 0.0 | 1.7 | 0.00 | 0.00 | 0.00 | 33 | |
| 20260503034115 | 71 | 100 | 0.9 | 1.7 | 0.00 | 0.00 | 0.00 | 32 | |
| 20260503033110 | 71 | 121 | 1.7 | 1.7 | 0.00 | 0.00 | 0.00 | 32 | |
| 20260503032106 | 72 | 87 | 0.0 | 1.7 | 0.00 | 0.00 | 0.00 | 31 | |
| 20260503031101 | 73 | 107 | 0.9 | 1.7 | 0.00 | 0.00 | 0.00 | 30 | |
| 20260503030100 | 74 | 39 | 0.9 | 3.5 | 0.00 | 0.00 | 0.00 | 29 | |
| 20260503025100 | 74 | 134 | 0.9 | 1.7 | 0.00 | 0.00 | 0.00 | 29 | |
| 20260503024059 | 75 | 63 | 1.7 | 2.6 | 0.00 | 0.00 | 0.00 | 28 | |
| 20260503023059 | 75 | 279 | 3.5 | 6.1 | 0.00 | 0.00 | 0.00 | 28 | |
| 20260503022056 | 76 | 335 | 1.7 | 3.5 | 0.00 | 0.00 | 0.00 | 27 | |
| 20260503021056 | 76 | 243 | 2.6 | 3.5 | 0.00 | 0.00 | 0.00 | 26 | |
| 20260503020056 | 77 | 293 | 2.6 | 7.8 | 0.00 | 0.00 | 0.00 | 26 | |
| 20260503015056 | 77 | 284 | 5.2 | 7.8 | 0.00 | 0.00 | 0.00 | 25 | |
| 20260503014055 | 78 | 256 | 3.5 | 7.8 | 0.00 | 0.00 | 0.00 | 25 | |
| 20260503013050 | 79 | 100 | 4.3 | 6.1 | 0.00 | 0.00 | 0.00 | 25 | |
| 20260503012050 | 79 | 202 | 7.8 | 11.3 | 0.00 | 0.00 | 0.00 | 24 | |
| 20260503011049 | 80 | 219 | 6.1 | 9.6 | 0.00 | 0.00 | 0.00 | 23 | |
| 20260503010049 | 81 | 231 | 7.0 | 9.6 | 0.00 | 0.00 | 0.00 | 23 | |
| 20260503005048 | 82 | 260 | 7.0 | 11.3 | 0.00 | 0.00 | 0.00 | 22 | |
| 20260503004048 | 83 | 230 | 3.5 | 7.0 | 0.00 | 0.00 | 0.00 | 22 | |
| 20260503003048 | 83 | 186 | 11.3 | 14.8 | 0.00 | 0.00 | 0.00 | 21 | |
| 20260503002047 | 84 | 241 | 7.0 | 9.6 | 0.00 | 0.00 | 0.00 | 21 | |
| 20260503001046 | 84 | 259 | 8.7 | 14.8 | 0.00 | 0.00 | 0.00 | 21 | |
| 20260503000046 | 85 | 269 | 5.2 | 8.7 | 0.00 | 0.00 | 0.00 | 20 | |
| 20260502235041 | 84 | 204 | 7.0 | 13.9 | 0.00 | 0.00 | 0.00 | 21 | |
| 20260502234040 | 85 | 49 | 4.3 | 9.6 | 0.00 | 0.00 | 0.00 | 21 | |
| 20260502233037 | 86 | 255 | 8.7 | 15.6 | 0.00 | 0.00 | 0.00 | 20 | |
| 20260502232037 | 86 | 293 | 5.2 | 8.7 | 0.00 | 0.00 | 0.00 | 20 | |
| 20260502231031 | 86 | 210 | 7.8 | 14.8 | 0.00 | 0.00 | 0.00 | 20 | |
| 20260502230028 | 86 | 346 | 2.6 | 12.2 | 0.00 | 0.00 | 0.00 | 20 | |
| 20260502225025 | 87 | 239 | 9.6 | 13.9 | 0.00 | 0.00 | 0.00 | 20 | |
| 20260502224025 | 86 | 259 | 5.2 | 13.0 | 0.00 | 0.00 | 0.00 | 19 | |
| 20260502223020 | 86 | 282 | 3.5 | 9.6 | 0.00 | 0.00 | 0.00 | 19 | |
| 20260502222019 | 87 | 252 | 6.1 | 12.2 | 0.00 | 0.00 | 0.00 | 19 | |
| 20260502221019 | 88 | 237 | 12.2 | 14.8 | 0.00 | 0.00 | 0.00 | 18 | |
| 20260502220017 | 87 | 218 | 7.8 | 14.8 | 0.00 | 0.00 | 0.00 | 18 |